Location: Unspecified
(29.0670°N, 110.9670°W)
Time: 03:23:26
(UTC+00:00)

Daily predictions for brighter satellites

Satellite Brightness Start Highest point End
(mag) Time Altitude Azimuth Time Altitude Azimuth Time Altitude Azimuth
Cosmos 2322 Rocket 3.3 02:37:27 10° N 02:42:20 29° ENE 02:47:11 10° ESE
ATLAS CENTAUR Rocket 3.4 02:39:51 10° W 02:43:20 23° SSW 02:46:47 10° SSE
Cosmos 1626 Rocket 4.3 02:39:30 10° NNE 02:43:31 33° E 02:47:30 10° SE
CZ-2D R/B 4.2 02:43:46 10° S 02:47:27 49° W 02:51:12 10° NNW
BREEZE-M DEB (TANK) 3.1 02:48:48 10° NW 02:51:31 79° SW 02:58:28 10° SE
CSL-04 Rocket 4.1 02:49:39 10° SE 02:54:48 45° ENE 02:59:54 10° N
Cosmos 1437 Rocket 3.8 03:00:56 10° SSW 03:04:21 45° W 03:07:49 10° N
GPS 2-17 Rocket1 4.1 03:01:16 10° SW 03:04:38 24° S 03:07:00 15° SE
Tsikada Rocket 4.1 03:03:08 10° N 03:09:19 84° W 03:15:31 10° S
Cosmos 2098 Rocket 3.0 03:09:35 10° S 03:13:50 50° E 03:17:28 10° NNE
Cosmos 1544 Rocket 4.5 03:10:07 10° SSW 03:14:16 49° W 03:18:27 10° N
Cosmos 1464 Rocket 4.3 03:09:48 10° SSE 03:15:34 45° E 03:21:25 10° NNE
Okean 1 3.6 03:16:23 18° SSE 03:18:34 36° E 03:21:52 10° NNE
SL-16 R/B 2.6 03:14:59 10° NNW 03:20:34 62° WSW 03:26:07 10° S
SEDSat Delta rocket 4.0 03:15:16 10° W 03:21:19 74° N 03:27:01 14° E
ATLAS 2A CENTAUR R/B 3.5 03:17:11 10° WSW 03:21:34 61° SSE 03:32:03 10° E
Cosmos 2278 3.8 03:15:52 10° NNW 03:21:34 83° WSW 03:26:50 12° SSE
Lacrosse 4 Rocket 2.6 03:25:22 21° E 03:25:22 21° E 03:27:55 10° NE
ERS-1 Rocket 3.4 03:22:01 19° SE 03:25:16 45° ENE 03:30:01 10° N
Cosmos 468 Rocket 3.9 03:22:16 10° S 03:27:31 74° ESE 03:32:45 10° NNE
Cosmos 1503 Rocket 4.3 03:23:13 10° N 03:28:12 48° ENE 03:31:03 24° SE
CSL-04 Debris 4.1 03:23:09 11° SSE 03:28:28 87° E 03:33:57 10° NNW
DELTA 2 R/B (1) 4.0 03:25:18 10° WNW 03:30:45 54° SW 03:34:04 23° SSE
Cosmos 2151 2.8 03:26:49 10° N 03:30:53 83° W 03:34:10 15° S
Cosmos 2297 Rocket 3.1 03:34:35 24° ESE 03:35:36 26° ESE 03:40:09 10° NE
Cosmos 1486 Rocket 4.1 03:32:13 10° NNW 03:37:32 82° WSW 03:41:25 19° S
Cosmos 1072 Rocket 4.5 03:33:04 10° S 03:39:20 83° E 03:45:43 10° N
Longmarch 3A Rocket 2.0 03:33:29 10° W 03:41:43 62° SSW 03:42:42 40° SE
Cosmos 1707 4.1 03:43:36 16° NE 03:43:36 16° NE 03:44:24 10° NNE
ISS -1.9 03:41:17 10° N 03:43:46 19° NE 03:44:23 18° NE
Meteor 1-25 Rocket 4.1 03:38:30 10° N 03:44:03 88° ENE 03:48:01 20° S
Helios 1A Rocket 2.7 03:41:39 10° N 03:44:43 58° WNW 03:47:10 15° SSW
Cosmos 2360 Rocket 2.2 03:40:51 10° NNW 03:46:31 78° WSW 03:50:06 23° S
Skynet4D Del rocket 4.1 03:42:09 10° SW 03:47:04 37° SSE 03:48:20 33° SE
Meteor 1-5 Rocket 4.3 03:42:47 10° N 03:48:42 66° E 03:51:53 28° SSE
Meteor 1-31 Rocket 3.1 03:47:12 26° SSW 03:48:54 53° W 03:52:15 10° NNW
Okean O Rocket 2.7 03:49:15 26° ENE 03:49:29 26° ENE 03:53:03 10° NNE
PAYLOAD B 4.1 03:46:21 25° SSE 03:49:43 80° ENE 03:55:16 10° N
Cosmos 1354 Rocket 4.2 03:45:14 10° N 03:50:19 53° ENE 03:52:04 36° SE
CBERS 1 LM4 rocket 4.5 03:48:30 31° SSE 03:50:57 69° ENE 03:56:12 10° N
Cosmos 2219 Rocket 2.2 03:46:31 10° NNW 03:52:11 68° ENE 03:54:35 35° SE
Spot 2 Rocket 4.1 03:51:53 32° ESE 03:53:01 37° ENE 03:57:36 10° N
Cosmos 1825 Rocket 3.7 03:49:24 10° N 03:53:41 51° E 03:54:28 45° ESE
CZ-4B DEB 4.2 03:50:24 22° S 03:54:06 80° WSW 03:59:38 10° NNW
MetOp-B 4.0 03:51:53 30° SSE 03:54:33 76° ENE 03:59:54 10° N
NOSS 3-4 (A) 4.3 03:48:53 10° NW 03:56:16 66° WSW 04:02:06 22° SSE
NOSS 3-4 (C) 4.3 03:49:33 10° NW 03:56:58 67° WSW 04:02:43 22° SSE
Cosmos 990 Rocket 4.0 03:52:11 10° N 03:57:21 66° ENE 03:59:03 41° SE
Terra 1.7 03:56:11 34° SSE 03:58:14 88° W 04:02:56 10° NNW
CZ-4B R/B 3.2 03:55:48 32° SSE 03:58:33 78° ENE 04:04:06 10° N
Nadezhda 4 Rocket 4.0 03:54:58 10° N 04:01:06 64° E 04:03:41 36° SSE
Cosmos 2034 Rocket 3.9 03:57:46 21° S 04:02:10 75° E 04:08:28 10° N
GMS 1 Rocket B 4.1 03:58:10 10° W 04:02:29 90° NNW 04:03:08 61° E
Meteor 2-10 4.1 03:58:53 10° N 04:04:31 87° E 04:06:49 37° S
Meteor 2-2 Rocket 4.3 04:02:48 37° SSE 04:04:55 60° E 04:10:38 10° NNE
CZ-4 R/B 2.8 04:04:27 19° SW 04:06:18 29° W 04:09:32 10° NW
Cosmos 1953 Rocket 4.2 04:03:54 10° NNE 04:07:26 37° ENE 04:07:26 37° ENE
Atlas Centaur 2 1.0 04:06:39 10° W 04:10:18 86° N 04:10:24 84° NE
Chandra Rocket (1) 4.2 03:41:19 10° W 04:13:56 77° SSW 04:18:05 37° ESE
Cosmos 1634 Rocket 4.2 04:13:44 44° ESE 04:14:43 48° E 04:20:38 10° NNE
Cosmos 2322 4.5 04:11:08 10° N 04:16:15 34° ENE 04:16:46 34° ENE
Cosmos 2333 Rocket 4.4 04:12:19 10° NW 04:16:24 20° W 04:20:29 10° SSW
Cosmos 841 Rocket 3.5 04:13:12 21° SSW 04:16:43 79° WNW 04:21:58 10° NNE
CZ-3 Stage 3 1.4 04:12:38 10° W 04:17:25 57° NW 04:17:25 57° NW
Cosmos 2195 Rocket 4.5 04:13:29 10° N 04:19:31 60° E 04:20:40 51° SE
Cosmos 2026 Rocket 4.2 04:13:51 10° N 04:19:57 49° E 04:20:49 46° ESE
Cosmos 372 Rocket 4.4 04:16:01 10° N 04:20:44 42° ENE 04:20:44 42° ENE
RESURS DK-1 3.4 04:17:26 10° N 04:20:15 33° NE 04:20:15 33° NE
Okean 1-7 Rocket 4.2 04:17:48 10° NNW 04:22:12 54° W 04:23:24 41° SW
Cosmos 44 3.5 04:18:22 10° NNW 04:23:35 69° WSW 04:24:24 58° SSW
Meteor 1-26 Rocket 4.4 04:21:32 27° SSW 04:24:42 70° W 04:30:26 10° N
Okean-O 2.6 04:25:32 71° NE 04:25:32 71° NE 04:29:38 10° N
Cosmos 2322 Rocket 3.8 04:21:23 10° NW 04:26:11 29° WSW 04:29:25 17° SSW
Cosmos 2058 Rocket 3.0 04:29:05 77° WNW 04:29:05 77° WNW 04:33:19 10° N
Milstar 3 4.4 04:25:00 10° WSW 04:29:34 19° SSW 04:30:18 19° SSW
Cosmos 1898 Rocket 4.3 04:26:05 10° N 04:30:31 37° ENE 04:30:31 37° ENE
Yuri Rocket 4.2 04:28:44 10° WSW 04:32:07 36° SW 04:32:07 36° SW
Cosmos-2242 3.8 04:38:09 42° W 04:38:27 43° W 04:42:22 10° N
Cosmos 2227 Rocket 3.5 04:49:23 28° NE 04:49:23 28° NE 04:52:15 10° NE
Cosmos 2237 Rocket 3.8 04:42:56 10° NNE 04:46:36 21° NE 04:46:36 21° NE
Cosmos 1627 Rocket 4.3 04:42:12 10° N 04:48:37 84° E 04:49:11 75° SSE
Cosmos 1932 4.4 04:46:47 50° SSW 04:48:40 89° ESE 04:55:15 10° NNE
Meteor 2-6 Rocket 4.3 04:49:31 66° SSW 04:50:21 79° W 04:56:17 10° N
Lacrosse 4 Rocket 3.8 05:00:35 15° W 05:02:26 20° WNW 05:05:26 10° NNW
Cosmos 2221 4.4 05:09:08 24° N 05:09:08 24° N 05:10:54 10° N
SEDSat Delta rocket 4.1 05:01:15 10° W 05:06:40 60° WSW 05:06:40 60° WSW
SPOT 3 Rocket 4.0 05:10:44 56° NNW 05:10:44 56° NNW 05:14:49 10° NNW
USA 215 3.1 05:10:45 74° SW 05:10:51 74° SW 05:17:22 10° NW
CZ-4B R/B 4.5 05:19:55 41° NNW 05:19:55 41° NNW 05:23:06 10° NNW
Cosmos 2297 Rocket 3.8 05:16:13 19° WSW 05:19:23 31° WNW 05:24:21 10° N
Cosmos 1937 Rocket 4.4 05:15:32 10° NNW 05:18:59 44° NNW 05:18:59 44° NNW
Cosmos 1092 Rocket 4.4 05:17:53 10° NNW 05:23:55 54° W 05:24:02 53° W
Okean O Rocket 4.0 05:26:29 17° W 05:26:29 17° W 05:28:33 10° NW
COSMOS 2428 3.4 05:20:39 10° NNW 05:25:07 50° WNW 05:25:07 50° WNW
Ariane Rocket 4.1 05:28:58 42° NNW 05:28:58 42° NNW 05:32:22 10° NNW
NOSS 0 Rocket 4.4 05:29:18 10° NNW 05:34:14 57° NW 05:34:14 57° NW
Cosmos 2263 Rocket 3.9 06:21:43 29° NNW 06:21:43 29° NNW 06:24:52 10° N
SL-16 R/B 4.0 06:22:31 10° N 06:25:13 26° NNE 06:25:13 26° NNE
Cosmos 2227 Rocket 4.3 06:31:06 19° WNW 06:31:06 19° WNW 06:35:02 10° NNW
Cosmos 2237 Rocket 4.1 06:26:05 10° NW 06:28:24 23° NW 06:28:24 23° NW
CENTAUR R/B 4.2 07:32:08 23° NNW 07:32:08 23° NNW 07:35:38 10° N
ATLAS 2AS CENTAUR R/B 3.7 07:43:51 10° NNW 07:48:00 40° N 07:48:00 40° N
Milstar 3 Cent rocket 3.7 07:56:19 79° ESE 07:56:19 79° ESE 08:12:50 10° E
ACS3 Solar Sail 3.1 08:00:00 10° N 08:03:08 34° N 08:03:08 34° N
Cosmos 1943 Rocket 4.3 08:30:48 20° ENE 08:30:48 20° ENE 08:33:17 10° NE
CZ-4C R/B 3.1 08:56:03 10° NNW 09:03:39 79° W 09:03:39 79° W
Cosmos 2074 Rocket 4.3 09:04:15 10° N 09:09:20 61° N 09:09:20 61° N
Cosmos 1680 Rocket 4.5 09:18:00 43° NNE 09:18:00 43° NNE 09:21:27 10° NNE
Cosmos 2344 4.2 09:17:32 41° WNW 09:18:09 41° WNW 09:24:58 10° NNE
GOES 2 Rocket 4.4 09:18:26 80° SSE 09:18:26 80° SSE 09:25:28 10° E
Kakehashi 4.0 09:18:18 75° SSE 09:18:21 75° SSE 09:31:16 10° ENE
SeaSat 1 3.5 09:20:38 43° NNE 09:20:38 43° NNE 09:24:14 10° NNW
Cosmos 2154 Rocket 4.1 09:18:24 10° N 09:23:41 66° NNW 09:23:41 66° NNW
Cosmos 2184 Rocket 4.3 09:23:50 10° NNW 09:28:49 56° NW 09:28:49 56° NW
USA 238 DEB 3.6 09:30:29 61° E 09:30:29 61° E 09:36:18 10° NE
USA 238 3.6 09:30:40 60° E 09:30:40 60° E 09:36:30 10° NE
H-2A R/B 3.7 09:26:33 10° NE 09:31:00 26° E 09:31:53 25° ESE
ADEOS II 3.9 09:27:55 10° NE 09:31:53 22° E 09:33:00 21° ESE
BREEZE-M DEB (TANK) 4.2 09:34:19 10° NW 09:39:40 69° SW 09:57:48 10° SE
OAO 3 Rocket 4.1 09:40:36 46° NNE 09:40:36 46° NNE 09:44:25 10° ENE
MOS 1-B Rocket 4.0 09:33:10 10° N 09:40:07 73° WNW 09:40:11 73° W
Cosmos 1610 Rocket 4.3 09:37:45 10° N 09:44:04 88° W 09:44:22 82° S
ALOS 3.3 09:40:15 10° NNE 09:44:13 38° E 09:44:13 38° E
ADEOS Rocket 3.5 09:42:21 10° N 09:48:59 48° WNW 09:49:06 48° WNW
Cosmos 2278 Rocket 2.2 09:52:18 73° NW 09:52:18 73° NW 09:57:45 10° NNE
NOAA 11 4.3 09:46:55 10° N 09:51:56 64° NW 09:51:56 64° NW
OAO 2 Rocket 3.6 09:55:40 59° E 09:55:40 59° E 09:59:42 10° ENE
IDEFIX/ARIANE 42P 4.1 09:51:44 10° NNW 09:54:51 24° NW 09:54:51 24° NW
Meteor 2-5 Rocket 4.0 09:55:09 52° SE 09:56:06 60° E 10:01:37 10° NNE
Lacrosse 5 rocket 3.3 09:57:50 19° E 09:57:50 19° E 09:59:26 10° ENE
CZ-2D R/B 2.5 09:51:31 10° NNE 09:56:55 60° ESE 09:57:47 53° SE
NOSS 2-1 (D) 4.1 10:00:04 50° NE 10:00:04 50° NE 10:02:49 10° NNE
Cosmos 1733 Rocket 3.3 10:01:03 10° N 10:04:40 61° NNE 10:04:40 61° NNE
Cosmos 1420 Rocket 4.4 10:01:34 10° NNW 10:05:40 50° NW 10:05:40 50° NW
Meteor 2-13 Rocket 4.3 10:08:02 61° SSW 10:09:10 80° W 10:15:21 10° N
Cosmos 1943 Rocket 3.0 10:12:18 35° WNW 10:12:20 35° WNW 10:17:29 10° N
Cosmos 2181 Rocket 4.0 10:11:18 42° S 10:13:31 76° E 10:19:42 10° N
Timation 2 Rocket 3.8 10:12:28 60° SW 10:13:34 76° WNW 10:19:47 10° NNE
Timation 1 Rocket 4.4 10:09:18 10° NNW 10:15:16 79° ENE 10:20:46 12° SSE
Cosmos 1371 Rocket 4.1 10:12:05 10° NNW 10:17:21 76° ENE 10:20:06 29° SSE
Meteor 2-15 4.4 10:12:40 10° N 10:18:47 80° E 10:22:13 28° SSE
Resurs 1-4 Rocket 2.0 10:15:45 10° N 10:20:57 68° WNW 10:21:43 59° WSW
DMSP B5D2-2 3.9 10:20:10 47° S 10:21:43 85° WSW 10:26:58 10° NNW
Envisat 3.3 10:19:46 10° N 10:24:37 47° WNW 10:24:53 47° W
USA 59 Rocket 0.6 10:25:56 39° NW 10:25:56 39° NW 10:28:45 10° N
HBTSS-SV1 4.4 10:25:16 65° NW 10:25:31 67° NNW 10:29:49 10° NE
Cosmos 1833 Rocket 3.1 10:21:24 10° NW 10:26:15 43° W 10:26:15 43° W
SL-8 Rocket 3.8 10:21:30 10° N 10:27:40 79° W 10:30:41 32° S
BlueWalker 3 4.1 10:33:25 14° SE 10:33:25 14° SE 10:33:59 10° SE
H-2A R/B 3.2 10:28:57 23° SE 10:30:49 43° ENE 10:34:18 10° N
deb Centaur AC-2 3.8 10:35:30 59° W 10:36:18 89° S 10:40:36 10° E
H-2A R/B 4.3 10:33:55 10° NE 10:36:57 20° E 10:40:00 10° SE
Hubble Space Telescope 0.8 10:38:46 51° SSE 10:38:46 51° SSE 10:42:09 10° E
Cosmos 2228 Rocket 4.1 10:45:12 28° WNW 10:45:12 28° WNW 10:48:43 10° NNW
Meteor 2-15 Rocket 4.3 10:40:21 10° N 10:46:30 85° W 10:52:25 11° S
METEOR-M 4.0 10:43:22 10° N 10:48:42 80° WNW 10:51:35 28° SSW
Nadezhda 3 Rocket 4.0 10:45:03 17° S 10:49:57 80° E 10:56:06 10° N
Cosmos 2369 Rocket 3.4 10:45:25 11° S 10:50:21 37° ESE 10:55:27 10° NE
Spot 2 4.4 10:46:36 10° SSE 10:51:27 80° ENE 10:56:06 10° N
Cosmos 1959 Rocket 4.5 10:47:36 10° NNW 10:53:39 61° W 10:58:20 18° SSW
NOSS 2-1 (E) 4.3 10:53:06 32° W 10:54:01 35° WNW 10:57:29 10° N
Cosmos 1315 Rocket 2.6 10:50:39 10° N 10:54:25 83° E 10:57:01 19° S
Cosmos 2218 Rocket 4.1 10:48:21 10° NNW 10:54:34 56° W 10:59:03 19° SSW
Intelsat 5-1 Rocket 2.9 10:55:18 22° SSE 10:55:18 22° SSE 10:57:50 10° SE
ARGOS 3.2 10:49:20 10° NNE 10:54:42 80° ESE 10:58:47 18° S
Geosat FO 3.7 10:54:22 10° NNE 10:57:02 71° WNW 10:57:03 71° WNW
Cosmos 2341 Rocket 4.4 10:54:23 10° NNW 11:00:12 41° W 11:03:34 23° SW
Cosmos 1869 2.8 10:57:29 10° N 11:00:53 86° ENE 11:03:07 20° S
Centaur D-1AR AC-36 3.3 10:53:04 10° W 11:02:58 30° SSW 11:06:37 10° SE
SL-16 R/B 3.6 11:01:48 10° SE 11:07:42 47° ENE 11:13:36 10° N
NOSS 3-1 (C) 3.7 11:05:27 13° S 11:08:57 40° ESE 11:13:22 10° NE
JB-3 4.2 11:07:08 23° S 11:09:11 54° W 11:12:52 10° NNW
H-2A R/B 3.2 11:05:35 10° NNW 11:10:08 29° WNW 11:12:23 21° WSW
Cosmos 2056 Rocket 4.4 11:06:20 10° NW 11:10:32 26° W 11:11:45 24° WSW
ADEOS II 2.9 11:06:46 10° N 11:11:22 32° WNW 11:13:48 22° WSW
USA 281 3.2 11:05:21 10° SSE 11:11:55 88° WSW 11:18:30 10° NNW
Cosmos 1356 Rocket 3.2 11:08:01 10° N 11:11:56 88° E 11:15:53 10° S
Cosmos 1339 Rocket 4.4 11:06:15 10° S 11:12:28 86° W 11:18:37 10° N
Cosmos 1703 Rocket 4.5 11:11:56 25° WSW 11:13:07 29° W 11:16:50 10° NNW
GOES 2 Rocket 4.1 11:05:52 12° W 11:13:21 82° S 11:19:20 10° E
In-Cosmos 22 Rocket 4.0 11:10:12 13° SSW 11:14:51 77° W 11:20:11 10° N
SL-24 DEB 4.1 11:12:04 13° S 11:16:01 60° W 11:20:23 10° NNW
ASC 2 Rocket 3.9 11:18:27 21° SW 11:20:20 31° S 11:23:59 10° ESE
ALOS 4.0 11:18:32 10° NW 11:21:00 15° WNW 11:22:15 13° W
OAO 3 Rocket 4.3 11:18:44 10° WNW 11:23:15 40° N 11:27:49 10° ENE
BREEZE-M DEB (TANK) 3.9 11:29:35 10° NNW 11:31:45 40° NE 11:36:00 10° ESE
Lacrosse 5 rocket 2.8 11:31:02 13° W 11:33:00 19° NW 11:35:33 10° N
CZ-2D R/B 4.1 11:33:39 10° NW 11:36:16 14° WNW 11:38:53 10° W
Cosmos 1331 Rocket 4.2 11:32:06 10° NNW 11:36:58 44° WSW 11:41:49 10° S
OAO 2 Rocket 4.1 11:34:46 10° W 11:39:30 46° N 11:44:12 10° ENE
SL-08 RB Rocket 3.9 11:35:51 10° N 11:40:17 53° WNW 11:44:43 10° SSW
Cosmos 1300 Rocket 3.9 11:37:41 10° NNW 11:41:51 44° W 11:45:58 10° SSW
Cosmos 2082 Rocket 2.2 11:36:31 10° NNW 11:42:01 58° WSW 11:47:28 10° S
Cosmos 1378 Rocket 3.8 11:43:01 10° S 11:47:20 72° E 11:51:39 10° N
Cosmos 1939 Rocket 3.5 11:43:50 10° NNE 11:47:33 53° E 11:51:15 10° S
PAYLOAD A 4.1 11:43:32 10° NNE 11:48:35 84° ESE 11:53:49 10° SSW
Cosmos 1934 Rocket 4.0 11:42:33 10° N 11:48:46 87° W 11:55:03 10° S
Cosmos 2297 3.8 11:46:20 10° SSW 11:52:00 64° WNW 11:57:42 10° NNE
